This is the latest recevied weather packets stored in our database for station/object SR5MRF. If no packets are shown the sender has not sent any weather packets the latest 1 day(s).
| Time | Temp. | Humidity | Pressure | Rain* | Wind** | Luminosity | Snow |
|---|---|---|---|---|---|---|---|
| 1777962401 | 21.67° C | 53% | 1008.2 hPa | 0 mm | 0 m/s | - | - |
| 1777961981 | 21.11° C | 54% | 1008 hPa | 0 mm | 0 m/s | - | - |
| 1777961561 | 20.56° C | 56% | 1008.3 hPa | 0 mm | 0 m/s | - | - |
| 1777961322 | 20.56° C | 56% | 1008.2 hPa | 0 mm | 0 m/s | - | - |
| 1777961141 | 20° C | 57% | 1008.1 hPa | 0 mm | 0 m/s | - | - |
| 1777960721 | 19.44° C | 59% | 1008.2 hPa | 0 mm | 0 m/s | - | - |
| 1777960301 | 18.33° C | 61% | 1008.1 hPa | 0 mm | 0 m/s | - | - |
| 1777960122 | 18.33° C | 61% | 1008.2 hPa | 0 mm | 0 m/s | - | - |
| 1777959881 | 17.78° C | 62% | 1008.2 hPa | 0 mm | 0 m/s | - | - |
| 1777959522 | 16.67° C | 64% | 1008.2 hPa | 0 mm | 0 m/s | - | - |
| 1777959461 | 16.67° C | 64% | 1008.4 hPa | 0 mm | 0 m/s | - | - |
| 1777959041 | 16.67° C | 64% | 1008.3 hPa | 0 mm | 0 m/s | - | - |
| 1777958621 | 16.11° C | 64% | 1008.4 hPa | 0 mm | 0 m/s | - | - |
| 1777958322 | 16.11° C | 64% | 1008.4 hPa | 0 mm | 0 m/s | - | - |
| 1777958201 | 16.11° C | 65% | 1008.5 hPa | 0 mm | 0 m/s | - | - |
| 1777957781 | 15.56° C | 64% | 1008.4 hPa | 0 mm | 0 m/s | - | - |
| 1777957722 | 15.56° C | 65% | 1008.4 hPa | 0 mm | 0 m/s | - | - |
| 1777957361 | 15.56° C | 65% | 1008.4 hPa | 0 mm | 0 m/s | - | - |
| 1777957122 | 15.56° C | 65% | 1008.3 hPa | 0 mm | 0 m/s | - | - |
| 1777956941 | 15.56° C | 65% | 1008.3 hPa | 0 mm | 0 m/s | - | - |
| 1777956521 | 15.56° C | 65% | 1008.3 hPa | 0 mm | 0 m/s | - | - |
| 1777956101 | 15.56° C | 65% | 1008.3 hPa | 0 mm | 0 m/s | - | - |
| 1777955922 | 15° C | 65% | 1008.4 hPa | 0 mm | 0 m/s | - | - |
| 1777955681 | 15° C | 65% | 1008.4 hPa | 0 mm | 0 m/s | - | - |
| 1777955322 | 15° C | 66% | 1008.4 hPa | 0 mm | 0 m/s | - | - |
* Rain latest hour (hover to see other rain measurements)
** Current wind speed in m/s (hover to see current wind gust speed)